Weather in Onatskovtsy

Ukraine / Khmelnitsky District     49°57′05″N   27°28′41″E
temp.,
°C
wind,
m/s
gust,
m/s
humid.,
%
clouds,
%
prec.,
mm/h
press.,
hPa
HPBL,
m
14 may, fri
fri1400:00+8sse5139399 0.0 1007440
03:00+8sse5129322 0.0 1006347
06:00+7sse4109711 0.1 1006248
09:00+12sse467924 0.1 1005441
12:00+17s4565100 0.0 10051213
15:00+15s6780100 2.6 1005827
18:00+15s4684100 1.3 1005424
21:00+12wsw41092100 4.1 1006331
15 may, sat
sat1500:00+11wsw3796100 0.7 1007253
03:00+10wsw3793100 0.8 1008211
06:00+9sw389499 0.0 1008210
09:00+12sw6786100 0.0 1009704
12:00+12wsw6891100 0.2 1010694
15:00+12w5787100 0.4 1011764
18:00+12w368395 0.0 1011430
21:00+10ssw23915 0.0 101231
16 may, sun
sun1600:00+9ssw22943 0.0 101232
03:00+8s22914 0.0 101316
06:00+8se349177 0.0 101253
09:00+14se4674100 0.0 1012359
12:00+18se6867100 0.0 1011902
15:00+20sse69615 0.9 10091556
18:00+19se696888 0.7 1008959
21:00+14se498698 1.3 1008148
17 may, mon
mon1700:00+12sw489572 0.9 1008182
03:00+11ssw1194100 1.2 100812
06:00+12w2497100 0.1 1008112
09:00+13nw5691100 0.1 1008478
12:00+12wnw5889100 0.0 1009540
15:00+16wnw676969 0.3 10081281
18:00+15wnw4772100 0.1 1008385
21:00+12w11790 0.1 100910
18 may, tue
tue1800:00+10wsw11840 0.0 101110
03:00+10sw228590 0.0 101116
06:00+10sw2383100 0.0 101165
09:00+14se2375100 0.0 1011267
12:00+14se368058 0.0 1011262
15:00+19sse686129 0.3 10081530
18:00+17se51080100 1.5 1006592
21:00+15ese61390100 6.9 1003402